{"data":{"norad_id":66562,"epoch":"2026-09-20T05:45:10.902528Z","epoch_age_seconds":111796,"freshness":"FRESH","line1":"1 66562U 25268F   26263.23970952  .00013022  00000+0  48178-3 0  9992","line2":"2 66562  43.0012 328.3468 0001038 236.4737 123.6015 15.27586775 47715","mean_motion":15.27586775,"eccentricity":0.0001038,"inclination_deg":43.0012,"raan_deg":328.3468,"arg_perigee_deg":236.4737,"mean_anomaly_deg":123.6015,"bstar":0.00048178,"rev_number":4771,"period_min":94.266330631201,"perigee_km":482.31662031633,"apogee_km":483.74099833835,"semimajor_km":6861.1658093273,"source":"CELESTRAK","updated_at":"2026-09-21T09:00:35.970411Z"}}